UTA7775 USRO-USRR

Flight info

Callsign UTA7775
Flight time N/A
Altitude 20000
Route DINOL2G DINOL T797 INDUS INDUS1L
Aircraft AT76/M-SDFGIRY/S

Departure

Time 2026-04-20 12:31
Airport Noyabrsk Airport (USRO)

Arrival

Time N/A
Airport Surgut International Airport (USRR)
Time Latitude Longitude Altitude Speed Heading
2026-04-20 12:16 63.18311 75.27303 453 ft 0 kts 204°
2026-04-20 12:23 63.18305 75.27297 453 ft 7 kts 204°
2026-04-20 12:23 63.18299 75.27110 453 ft 5 kts 299°
2026-04-20 12:24 63.18318 75.27027 453 ft 6 kts 295°
2026-04-20 12:24 63.18337 75.26938 454 ft 6 kts 295°
2026-04-20 12:24 63.18355 75.26901 454 ft 8 kts 337°
2026-04-20 12:24 63.18430 75.26937 454 ft 10 kts 26°
2026-04-20 12:25 63.18489 75.26998 453 ft 11 kts 25°
2026-04-20 12:25 63.18563 75.27073 451 ft 10 kts 25°
2026-04-20 12:25 63.18622 75.27133 451 ft 10 kts 25°
2026-04-20 12:25 63.18683 75.27196 450 ft 9 kts 24°
2026-04-20 12:26 63.18731 75.27244 451 ft 6 kts 24°
2026-04-20 12:26 63.18767 75.27279 451 ft 5 kts 24°
2026-04-20 12:26 63.18800 75.27314 451 ft 5 kts 24°
2026-04-20 12:26 63.18836 75.27349 450 ft 6 kts 24°
2026-04-20 12:27 63.18868 75.27383 450 ft 4 kts 28°
2026-04-20 12:27 63.18904 75.27423 450 ft 14 kts 26°
2026-04-20 12:27 63.19001 75.27524 447 ft 14 kts 25°
2026-04-20 12:27 63.19079 75.27603 447 ft 11 kts 24°
2026-04-20 12:28 63.19147 75.27670 445 ft 10 kts 26°
2026-04-20 12:28 63.19197 75.27727 437 ft 7 kts 25°
2026-04-20 12:28 63.19251 75.27782 447 ft 13 kts 28°
2026-04-20 12:28 63.19311 75.27875 447 ft 8 kts 37°
2026-04-20 12:29 63.19346 75.27944 448 ft 6 kts 41°
2026-04-20 12:29 63.19374 75.27954 448 ft 1 kts 317°
2026-04-20 12:29 63.19378 75.27913 449 ft 11 kts 261°
2026-04-20 12:29 63.19337 75.27868 448 ft 0 kts 205°
2026-04-20 12:30 63.19219 75.27745 447 ft 51 kts 205°
2026-04-20 12:30 63.18698 75.27210 451 ft 111 kts 205°
2026-04-20 12:30 63.17869 75.26389 494 ft 145 kts 204°
2026-04-20 12:30 63.16922 75.25155 651 ft 165 kts 224°
2026-04-20 12:31 63.16092 75.23348 1083 ft 170 kts 224°
2026-04-20 12:31 63.15319 75.21426 1688 ft 169 kts 235°
2026-04-20 12:31 63.14590 75.19413 2328 ft 164 kts 231°
2026-04-20 12:31 63.13827 75.17620 3052 ft 157 kts 226°
2026-04-20 12:32 63.13045 75.15976 3712 ft 154 kts 224°
2026-04-20 12:32 63.12247 75.14395 4347 ft 154 kts 223°
2026-04-20 12:32 63.11437 75.12869 4995 ft 152 kts 220°
2026-04-20 12:32 63.10613 75.11425 5617 ft 151 kts 218°
2026-04-20 12:33 63.09785 75.10011 6226 ft 150 kts 219°
2026-04-20 12:33 63.09032 75.08436 6800 ft 152 kts 229°
2026-04-20 12:33 63.08328 75.06694 7381 ft 152 kts 226°
2026-04-20 12:33 63.07584 75.05027 7919 ft 155 kts 224°
2026-04-20 12:34 63.06779 75.03402 8455 ft 156 kts 221°
2026-04-20 12:34 63.05950 75.01835 9051 ft 157 kts 220°
2026-04-20 12:34 63.05099 75.00315 9593 ft 160 kts 219°
2026-04-20 12:34 63.04204 74.98793 10124 ft 163 kts 218°
2026-04-20 12:35 63.03287 74.97302 10654 ft 164 kts 217°
2026-04-20 12:35 63.02358 74.95840 11188 ft 165 kts 218°
2026-04-20 12:35 63.01402 74.94359 11677 ft 169 kts 218°
2026-04-20 12:35 63.00455 74.92793 12213 ft 171 kts 221°
2026-04-20 12:36 62.99534 74.91140 12764 ft 171 kts 221°
2026-04-20 12:36 62.98592 74.89470 13249 ft 177 kts 221°
2026-04-20 12:36 62.97619 74.87788 13801 ft 179 kts 220°
2026-04-20 12:36 62.96628 74.86118 14343 ft 179 kts 220°
2026-04-20 12:37 62.95626 74.84480 14842 ft 180 kts 220°
2026-04-20 12:37 62.94593 74.82822 15275 ft 185 kts 220°
2026-04-20 12:37 62.93551 74.81177 15792 ft 185 kts 220°
2026-04-20 12:37 62.92514 74.79560 16320 ft 185 kts 221°
2026-04-20 12:38 62.91484 74.77878 16798 ft 187 kts 222°
2026-04-20 12:38 62.90435 74.76135 17272 ft 189 kts 223°
2026-04-20 12:38 62.89384 74.74401 17795 ft 190 kts 223°
2026-04-20 12:38 62.88321 74.72679 18321 ft 190 kts 223°
2026-04-20 12:39 62.86214 74.69066 19114 ft 195 kts 229°
2026-04-20 12:39 62.85210 74.67066 19580 ft 194 kts 229°
2026-04-20 12:39 62.84194 74.65120 19956 ft 201 kts 227°
2026-04-20 12:40 62.83054 74.63126 20159 ft 212 kts 221°
2026-04-20 12:40 62.81786 74.61408 20441 ft 222 kts 218°
2026-04-20 12:40 62.80417 74.59623 20474 ft 235 kts 218°
2026-04-20 12:40 62.79010 74.57750 20500 ft 237 kts 218°
2026-04-20 12:41 62.77614 74.55816 20525 ft 238 kts 219°
2026-04-20 12:41 62.76231 74.53816 20539 ft 238 kts 220°
2026-04-20 12:41 62.74864 74.51766 20559 ft 239 kts 221°
2026-04-20 12:41 62.73487 74.49635 20364 ft 248 kts 222°
2026-04-20 12:42 62.72075 74.47388 20161 ft 255 kts 222°
2026-04-20 12:42 62.70636 74.45081 20068 ft 257 kts 222°
2026-04-20 12:42 62.69195 74.42773 20019 ft 257 kts 222°
2026-04-20 12:42 62.67755 74.40472 20001 ft 256 kts 222°
2026-04-20 12:43 62.66337 74.38212 19991 ft 255 kts 222°
2026-04-20 12:43 62.64909 74.35940 19984 ft 254 kts 222°
2026-04-20 12:43 62.63485 74.33673 19982 ft 253 kts 222°
2026-04-20 12:43 62.62088 74.31350 19981 ft 252 kts 224°
2026-04-20 12:44 62.60713 74.29008 19975 ft 251 kts 224°
2026-04-20 12:44 62.59316 74.26637 19976 ft 251 kts 223°
2026-04-20 12:44 62.57962 74.24346 19977 ft 249 kts 224°
2026-04-20 12:44 62.56667 74.21862 19978 ft 248 kts 228°
2026-04-20 12:45 62.55389 74.19340 19979 ft 249 kts 227°
2026-04-20 12:45 62.54052 74.16940 19978 ft 250 kts 223°
2026-04-20 12:45 62.52606 74.14815 19967 ft 253 kts 217°
2026-04-20 12:45 62.51001 74.13163 19973 ft 257 kts 206°
2026-04-20 12:46 62.49407 74.11633 19977 ft 245 kts 219°
2026-04-20 12:46 62.47996 74.09572 19974 ft 245 kts 221°
2026-04-20 12:46 62.46559 74.07562 19975 ft 246 kts 219°
2026-04-20 12:46 62.45105 74.05609 19972 ft 246 kts 218°
2026-04-20 12:47 62.43639 74.03686 19969 ft 247 kts 218°
2026-04-20 12:47 62.42172 74.01773 19970 ft 246 kts 218°
2026-04-20 12:47 62.40723 73.99818 19976 ft 245 kts 220°
2026-04-20 12:47 62.39314 73.97749 19976 ft 244 kts 222°
2026-04-20 12:48 62.37937 73.95598 19979 ft 244 kts 223°
2026-04-20 12:48 62.36573 73.93424 19979 ft 244 kts 223°
2026-04-20 12:48 62.35205 73.91247 19979 ft 244 kts 223°
2026-04-20 12:48 62.33828 73.89084 19978 ft 245 kts 223°
2026-04-20 12:49 62.32459 73.86923 19974 ft 244 kts 224°
2026-04-20 12:49 62.31098 73.84731 19972 ft 244 kts 224°
2026-04-20 12:49 62.29752 73.82577 19972 ft 244 kts 223°
2026-04-20 12:49 62.28375 73.80433 19972 ft 246 kts 220°
2026-04-20 12:50 62.26850 73.78693 19963 ft 251 kts 211°
2026-04-20 12:50 62.25123 73.77848 19860 ft 269 kts 185°
2026-04-20 12:50 62.23283 73.79111 19785 ft 288 kts 152°
2026-04-20 12:50 62.21879 73.82300 19788 ft 297 kts 121°
2026-04-20 12:51 62.21295 73.86487 19636 ft 303 kts 93°
2026-04-20 12:51 62.21610 73.90922 19081 ft 303 kts 64°
2026-04-20 12:51 62.22784 73.94530 18507 ft 292 kts 36°
2026-04-20 12:51 62.24527 73.96475 17889 ft 278 kts
2026-04-20 12:52 62.26390 73.96321 17265 ft 264 kts 337°
2026-04-20 12:52 62.27861 73.94180 16658 ft 255 kts 307°
2026-04-20 12:52 62.28521 73.90727 16050 ft 253 kts 275°
2026-04-20 12:52 62.28170 73.87041 15464 ft 258 kts 244°
2026-04-20 12:53 62.26984 73.84372 14910 ft 265 kts 213°
2026-04-20 12:53 62.25270 73.82909 14345 ft 266 kts 200°
2026-04-20 12:53 62.23493 73.81767 13734 ft 267 kts 198°
2026-04-20 12:53 62.21694 73.80722 13107 ft 268 kts 197°